Location: Peebles
(55.6412°N, 3.1714°W)
Time: 21:16:02
(UTC+00:00)

DNEPR-1 R/B - Visible Passes

Search period start: 21 January 2022 00:00
Search period end: 31 January 2022 00:00
Orbit: 586 x 1336 km, 64.6° (Epoch: 21 January)

Date Brightness Start Highest point End Pass type
(mag) Time Alt. Az. Time Alt. Az. Time Alt. Az.
21 Jan 5.1 17:43:20 10° NW 17:48:00 48° SW 17:53:33 10° SSE visible
21 Jan 7.3 19:33:16 10° W 19:34:32 11° WSW 19:35:52 10° SW visible
22 Jan 6.1 18:04:34 10° WNW 18:08:55 30° WSW 18:13:57 10° S visible
23 Jan 6.9 18:26:09 10° WNW 18:29:42 19° WSW 18:33:42 10° SSW visible
24 Jan 7.5 18:48:53 10° W 18:50:24 11° WSW 18:51:58 10° SW visible
25 Jan 6.3 17:20:23 10° WNW 17:24:45 31° WSW 17:29:51 10° S visible
26 Jan 7.2 17:41:56 10° WNW 17:45:34 20° WSW 17:49:38 10° SSW visible
27 Jan 7.1 07:19:24 10° SE 07:21:25 13° ESE 07:23:26 10° E visible
27 Jan 7.8 18:04:32 10° W 18:06:15 11° WSW 18:08:02 10° SW visible
30 Jan 6.9 06:35:20 10° SE 06:37:16 13° ESE 06:39:12 10° E visible
30 Jan 7.7 17:20:12 10° W 17:22:06 12° WSW 17:24:05 10° SW visible
